[[{"header":{"parameterUnit":"m.s-1","parameterCategory":1,"la1":30.2991,"la2":30.254,"lo1":-89.0895,"lo2":-89.0444,"dx":0.0017,"dy":0.0017,"nx":28,"ny":28,"refTime":"2023-01-23T03:00:00:Z","depth":0,"parameterNumber":2,"parameterNumberName":"U-component_of_WINDS"},"data":[0,0,0,0,0,0,0,0,0,0,0,0,0,0,0,0,0,0,0,0,0,0,0,0,0,0,0,0,0,0,0,0,0,0,0,0,0,0,0,0,0,0,0,0,0,0,0,0,0,0,0,0,0,0,0,0,0,0,-8.9456,-8.9457,0,-8.9592,-8.9593,-8.9595,-8.9544,-8.9541,-8.9538,-8.9535,-8.9666,-8.9672,-8.9679,0,0,0,0,0,0,0,0,0,0,0,0,0,-8.9146,-8.9152,-8.9455,-8.9457,-8.9459,-8.9591,-8.9593,-8.9595,-8.9544,-8.9541,-8.9537,-8.9533,-8.9664,-8.9672,-8.9679,0,0,0,0,0,0,0,0,0,0,0,0,0,-8.9281,-8.9154,-8.9455,-8.945,-8.9451,-8.9591,-8.9593,-8.9596,-8.9545,-8.954,-8.9536,-8.9532,-8.9662,-8.9671,-8.968,-8.9832,0,0,-8.9709,-8.9714,0,0,0,0,0,0,0,0,-8.9273,-8.9292,-8.9449,-8.945,-8.9452,-8.9546,-8.9532,-8.9674,-8.9546,-8.9509,-8.9535,-8.9529,-8.9629,-8.9641,-8.9677,-8.9838,-8.9844,-8.971,-8.9716,-8.972,-8.9723,0,0,0,0,0,0,0,-8.9264,-8.9286,-8.9509,-8.9451,-8.9453,-8.9438,-8.9453,-8.9559,-8.9593,-8.9512,-8.9509,-8.9526,-8.9629,-8.9668,-8.9679,-8.9845,-8.971,-8.9719,-8.9724,-8.9728,-9.0137,-9.0142,0,0,0,0,0,0,-8.9255,-8.9278,-8.9505,-8.9513,-8.9349,-8.9448,-8.9464,-8.952,-8.9592,-8.9599,-8.953,-8.9523,-8.9654,-8.9668,-8.9684,-8.9864,-8.972,-8.9729,-8.9735,-9.0132,-9.0138,-9.0144,0,0,0,0,0,0,-8.9248,-8.9275,-8.9499,-8.9395,-8.9423,-8.9458,-8.9522,-8.9525,-8.9564,-8.9606,-8.9611,-8.9563,-8.9651,-8.967,-8.9796,-8.9868,-8.9733,-8.9742,-9.0126,-9.0134,-9.0141,-9.0226,0,0,0,0,0,0,-8.924,-8.9273,-8.9332,-8.9397,-8.9428,-8.9611,-8.9527,-8.9531,-8.9581,-8.9574,-8.9638,-8.9644,-8.9648,-8.9782,-8.9805,-8.9878,-8.975,-9.0119,-9.0129,-9.0138,-9.0217,-9.0236,-9.0252,0,0,0,0,0,-8.9229,-8.9349,-8.9336,-8.9363,-8.9503,-8.9615,-8.9632,-8.9637,-8.9587,-8.9646,-8.9673,-8.9642,-8.9858,-8.9795,-8.9821,-8.9898,-9.0115,-9.0126,-9.0138,-9.0209,-9.0232,-9.0252,0,0,0,0,0,0,-8.9289,-8.9358,-8.9343,-8.9489,-8.9547,-8.9606,-8.9679,-8.9662,-8.9733,-8.9722,-8.9724,-8.9738,-8.9867,-8.9896,-8.9825,-9.0048,-8.9978,-8.9996,-9.0024,-9.0046,-9.0063,-9.0051,-8.9758,0,0,0,0,0,-8.932,-8.9407,-8.9462,-8.9585,-8.9615,-8.9643,-8.9692,-8.9691,-8.975,-8.9773,-8.981,-8.9866,-8.9946,-8.9999,-9.0075,-9.0224,-9.0235,-9.029,-9.0307,-9.0321,-9.0334,-9.0413,-9.0437,-9.0181,-9.0181,-9.0181,0,0,-8.9382,-8.9431,-8.9485,-8.9598,-8.9643,-8.9731,-8.9664,-8.9759,-8.9824,-8.9787,-8.9907,-8.9937,-9.0,-9.0137,-9.0199,-9.0165,-9.0409,-9.0336,-9.0347,-9.0352,-9.0427,-9.0451,-9.0473,-9.0189,-9.0188,-9.0187,0,0,-8.9541,-8.9589,-8.9696,-8.9744,-8.9814,-8.9832,-8.9858,-8.9922,-8.994,-9.0063,-9.0037,-9.0113,-9.0252,-9.0298,-9.0339,-9.052,-9.0493,-9.0546,-9.0634,-9.0711,-9.0731,-9.0749,-9.081,-9.0832,-9.056,-9.056,-9.056,0,-8.9609,-8.9743,-8.9752,-8.9851,-8.99,-8.9876,-8.9983,-9.0028,-9.0119,-9.0152,-9.0115,-9.0289,-9.033,-9.0477,-9.0521,-9.0557,-9.0584,-9.0535,-9.0728,-9.0746,-9.0763,-9.0821,-9.0844,-9.0565,-9.0565,-9.0564,-9.0564,0,-8.9822,-8.9916,-8.9993,-9.0085,-9.0144,-9.0246,-9.0269,-9.0327,-9.0324,-9.0345,-9.0469,-9.0519,-9.0604,-9.0641,-9.0636,-9.0787,-9.0763,-9.0728,-9.0656,-9.0793,-9.0847,-9.087,-9.0573,-9.0571,-9.057,-9.0568,0,0,-9.0015,-9.0115,-9.0142,-9.0183,-9.0262,-9.0333,-9.0435,-9.0521,-9.057,-9.0635,-9.0718,-9.0838,-9.0806,-9.0854,-9.0855,-9.0923,-9.106,-9.0879,-9.088,-9.0907,-9.1226,-9.1248,-9.1274,-9.1046,-9.105,-9.1054,-9.1219,0,-9.0177,-9.0357,-9.037,-9.0532,-9.0617,-9.0598,-9.0686,-9.0742,-9.0767,-9.0842,-9.0868,-9.0952,-9.0905,-9.0933,-9.1001,-9.1029,-9.1123,-9.1018,-9.1119,-9.1122,-9.1098,-9.1303,-9.1327,-9.1481,-9.1241,-9.1245,-9.1247,0,-9.0388,-9.0462,-9.0633,-9.07,-9.0736,-9.0816,-9.0896,-9.097,-9.1033,-9.1046,-9.1102,-9.1094,-9.1197,-9.1127,-9.1266,-9.1195,-9.1238,-9.1258,-9.1265,-9.1269,-9.1188,-9.1309,-9.153,-9.1551,-9.1282,-9.1279,-9.1276,0,-9.0507,-9.065,-9.077,-9.0807,-9.0889,-9.0945,-9.0982,-9.1042,-9.1093,-9.1164,-9.1197,-9.1279,-9.1322,-9.1385,-9.1399,-9.1347,-9.1537,-9.1469,-9.1548,-9.1547,-9.1583,-9.1579,-9.1809,-9.162,-9.162,-9.1619,-9.1619,0,-9.0682,-9.0786,-9.0825,-9.0898,-9.1014,-9.103,-9.1143,-9.1176,-9.123,-9.1308,-9.1298,-9.137,-9.1388,-9.1464,-9.1476,-9.1588,-9.1609,-9.162,-9.1621,-9.1618,-9.1616,-9.1641,-9.1628,-9.1626,-9.1624,-9.1623,-9.1622,0,-9.0831,-9.0862,-9.0992,-9.1061,-9.1081,-9.1163,-9.1221,-9.1291,-9.1317,-9.1416,-9.144,-9.1479,-9.1568,-9.1591,-9.1696,-9.1705,-9.1836,-9.1829,-9.1814,-9.1812,-9.1887,-9.1878,-9.2137,-9.217,-9.1964,-9.1966,-9.1968,0,-9.0938,-9.1018,-9.1098,-9.1151,-9.1191,-9.1276,-9.133,-9.1349,-9.1405,-9.1486,-9.1545,-9.1635,-9.1705,-9.1849,-9.1885,-9.1966,-9.1958,-9.2043,-9.1969,-9.1963,-9.1953,-9.1946,-9.1953,-9.2055,-9.2057,-9.2059,-9.206,0,-9.1123,-9.1136,-9.1215,-9.1301,-9.1367,-9.1434,-9.1499,-9.1542,-9.1571,-9.1634,-9.1727,-9.1783,-9.1893,-9.198,-9.2063,-9.2098,-9.2082,-9.2085,-9.2106,-9.21,-9.2087,-9.2091,-9.1847,-9.2077,-9.2075,-9.2074,-9.2073,-9.2072,-9.1251,-9.1321,-9.1388,-9.1477,-9.153,-9.1591,-9.166,-9.1697,-9.1775,-9.1868,-9.1875,-9.1975,-9.2038,-9.2147,-9.2188,-9.2265,-9.2238,-9.2271,-9.2278,-9.2284,-9.2288,-9.2081,-9.2281,-9.228,-9.228,-9.2279,-9.2279,0,-9.1431,-9.1475,-9.1558,-9.165,-9.172,-9.1707,-9.1779,-9.1837,-9.1926,-9.1988,-9.206,-9.2166,-9.2251,-9.2297,-9.2381,-9.2434,-9.2429,-9.2455,-9.2448,-9.2456,-9.2309,-9.228,-9.2457,-9.2457,-9.2457,-9.2457,-9.2457,-9.2457,-9.1533,-9.165,-9.1671,-9.1814,-9.1857,-9.1957,-9.1999,-9.2055,-9.2104,-9.2225,-9.2297,-9.2328,-9.2382,-9.2471,-9.2549,-9.256,-9.2589,-9.2617,-9.2624,-9.2485,-9.2466,-9.2449,-9.2421,-9.2625,-9.2625,-9.2763,-9.2765,-9.2766]},{"header":{"parameterUnit":"m.s-1","parameterCategory":1,"la1":30.2991,"la2":30.254,"lo1":-89.0895,"lo2":-89.0444,"dx":0.0017,"dy":0.0017,"nx":28,"ny":28,"refTime":"2023-01-23T03:00:00:Z","depth":0,"parameterNumber":3,"parameterNumberName":"V-component_of_WINDS"},"data":[0,0,0,0,0,0,0,0,0,0,0,0,0,0,0,0,0,0,0,0,0,0,0,0,0,0,0,0,0,0,0,0,0,0,0,0,0,0,0,0,0,0,0,0,0,0,0,0,0,0,0,0,0,0,0,0,0,0,2.7152,2.7153,0,2.7207,2.7208,2.7208,2.7225,2.7224,2.7224,2.7224,2.7276,2.7277,2.7279,0,0,0,0,0,0,0,0,0,0,0,0,0,2.7059,2.7061,2.7152,2.7153,2.7153,2.7207,2.7208,2.7209,2.7225,2.7224,2.7224,2.7224,2.7275,2.7277,2.7279,0,0,0,0,0,0,0,0,0,0,0,0,0,2.7105,2.7061,2.7152,2.7168,2.717,2.7207,2.7208,2.7209,2.7225,2.7224,2.7224,2.7224,2.7275,2.7277,2.728,2.7303,0,0,2.7287,2.7288,0,0,0,0,0,0,0,0,2.7103,2.7109,2.7165,2.7167,2.7169,2.7209,2.7194,2.724,2.7225,2.7204,2.7224,2.7223,2.7254,2.7258,2.7269,2.7305,2.7308,2.7287,2.7289,2.729,2.7291,0,0,0,0,0,0,0,2.7099,2.7106,2.7174,2.7166,2.7168,2.7172,2.7178,2.7203,2.723,2.7206,2.7207,2.7214,2.7255,2.7266,2.727,2.7308,2.7287,2.7289,2.7291,2.7292,2.7371,2.7371,0,0,0,0,0,0,2.7094,2.7104,2.7172,2.7175,2.7134,2.7174,2.7181,2.7196,2.723,2.7235,2.7214,2.7214,2.7262,2.7267,2.7272,2.7304,2.729,2.7292,2.7294,2.737,2.7371,2.7371,0,0,0,0,0,0,2.7092,2.71,2.717,2.714,2.7149,2.7176,2.7193,2.7198,2.721,2.7236,2.7241,2.7221,2.7262,2.7269,2.7296,2.7306,2.7293,2.7295,2.7369,2.737,2.7371,2.7366,0,0,0,0,0,0,2.7089,2.7099,2.7108,2.714,2.7151,2.7193,2.7194,2.7199,2.7214,2.7215,2.7244,2.7249,2.7262,2.7293,2.7299,2.7309,2.7297,2.7368,2.737,2.7371,2.7366,2.7367,2.7368,0,0,0,0,0,2.7086,2.7103,2.7108,2.7117,2.7163,2.7194,2.72,2.7217,2.7215,2.7225,2.7242,2.7248,2.7304,2.7295,2.7302,2.7313,2.7368,2.7369,2.7371,2.7365,2.7367,2.7368,0,0,0,0,0,0,2.7068,2.7107,2.7114,2.7142,2.7165,2.7196,2.7209,2.7217,2.724,2.7239,2.7258,2.7265,2.7291,2.7305,2.7295,2.734,2.7336,2.7339,2.7329,2.7331,2.7332,2.7328,2.7299,0,0,0,0,0,2.7069,2.7091,2.7123,2.7145,2.7157,2.7181,2.7195,2.7207,2.723,2.7239,2.7259,2.7281,2.7304,2.7318,2.7341,2.7368,2.7376,2.738,2.7381,2.7382,2.7384,2.7402,2.7404,2.7376,2.7376,2.7376,0,0,2.7067,2.7092,2.7104,2.7142,2.7161,2.7185,2.7189,2.7212,2.7229,2.7242,2.7271,2.7286,2.7312,2.7341,2.7354,2.7353,2.7394,2.7383,2.7384,2.7385,2.7403,2.7406,2.7408,2.7377,2.7377,2.7376,0,0,2.7078,2.7098,2.712,2.714,2.717,2.7187,2.7192,2.7224,2.7235,2.7265,2.7276,2.7297,2.7335,2.7354,2.7369,2.7391,2.7398,2.7398,2.7404,2.7421,2.7423,2.7425,2.7435,2.7438,2.74,2.74,2.74,0,2.7072,2.7109,2.7129,2.7154,2.7171,2.7187,2.721,2.7228,2.7263,2.7274,2.7273,2.7324,2.7342,2.7377,2.7383,2.7394,2.7401,2.7394,2.7422,2.7424,2.7426,2.7435,2.7439,2.74,2.74,2.74,2.74,0,2.7101,2.7127,2.7141,2.7177,2.7196,2.7219,2.7244,2.726,2.7271,2.7289,2.7319,2.7343,2.7372,2.7381,2.739,2.7417,2.7416,2.7418,2.7415,2.7429,2.7438,2.7441,2.74,2.74,2.74,2.74,0,0,2.7099,2.7151,2.7155,2.7174,2.721,2.723,2.7255,2.7286,2.73,2.7325,2.7346,2.7381,2.7384,2.7401,2.7413,2.7429,2.7448,2.7429,2.743,2.7432,2.7481,2.7479,2.7483,2.7453,2.7453,2.7454,2.7479,0,2.7115,2.7161,2.7183,2.722,2.7244,2.7262,2.7284,2.7309,2.7327,2.735,2.7368,2.7393,2.7395,2.7406,2.7422,2.7442,2.7457,2.744,2.7473,2.7474,2.7466,2.7487,2.7485,2.7508,2.7483,2.7483,2.7484,0,2.7138,2.7167,2.7207,2.7244,2.7255,2.7274,2.7306,2.7328,2.7357,2.7369,2.739,2.7403,2.743,2.7427,2.7465,2.7453,2.7468,2.748,2.7481,2.7484,2.7479,2.7492,2.7515,2.7519,2.7489,2.7489,2.7488,0,2.7134,2.7182,2.7213,2.7228,2.7272,2.7286,2.7304,2.7333,2.7352,2.7379,2.7391,2.7421,2.7437,2.7459,2.748,2.7475,2.7517,2.7514,2.7528,2.7527,2.7535,2.7534,2.7561,2.7544,2.7544,2.7544,2.7544,0,2.7149,2.7173,2.7213,2.7232,2.726,2.7285,2.7312,2.7332,2.7359,2.7382,2.7398,2.7419,2.7446,2.747,2.7487,2.7517,2.7524,2.7534,2.7538,2.7533,2.7532,2.7542,2.7541,2.7545,2.7545,2.7544,2.7544,0,2.7149,2.7176,2.7212,2.7252,2.7263,2.7282,2.7316,2.7335,2.7356,2.7385,2.7393,2.7424,2.7455,2.7478,2.7516,2.7528,2.756,2.7564,2.7551,2.7553,2.7566,2.7564,2.7601,2.7607,2.7585,2.7585,2.7586,0,2.7157,2.7176,2.722,2.7238,2.7258,2.7286,2.7306,2.7332,2.7352,2.739,2.7405,2.7437,2.7464,2.7512,2.7537,2.7568,2.7573,2.7584,2.7577,2.7572,2.7574,2.7573,2.7576,2.7584,2.7584,2.7584,2.7584,0,2.7168,2.7182,2.7211,2.7246,2.727,2.7298,2.7326,2.734,2.7372,2.7393,2.7426,2.7448,2.749,2.7521,2.7555,2.7574,2.7584,2.7587,2.7592,2.7586,2.7578,2.7584,2.7553,2.7585,2.7585,2.7585,2.7585,2.7585,2.7172,2.7192,2.7227,2.726,2.7285,2.7312,2.7334,2.7358,2.7387,2.7425,2.7438,2.7473,2.7504,2.7551,2.757,2.7597,2.7598,2.7604,2.7606,2.7607,2.7608,2.7574,2.7603,2.7603,2.7603,2.7603,2.7603,0,2.7186,2.7211,2.7241,2.7282,2.7308,2.7319,2.7352,2.7373,2.7404,2.7433,2.7461,2.75,2.7533,2.7562,2.7596,2.7612,2.7618,2.762,2.7619,2.7623,2.7605,2.7598,2.7615,2.7615,2.7615,2.7615,2.7615,2.7615,2.7196,2.723,2.7249,2.7297,2.7321,2.7357,2.7375,2.7401,2.7425,2.7469,2.7497,2.7517,2.7547,2.7584,2.7614,2.7622,2.7634,2.7635,2.7644,2.7626,2.7624,2.7623,2.7616,2.7637,2.7637,2.766,2.7661,2.7661]}]]